When you browse on this site, cookies collect data to enhance your experience and personalize the content and advertising you see.
Visit our Privacy Policy to learn more. By continuing to use the site, you agree to this use of cookies and data.
  • In United Kingdom
  • List of Countries
  • For 7 days
  • Water Temperature
  • Weather Map
  • Weather Widgets
  • user-avatar
    Login

    Hourly Weather Silistra

    Today, 19 October, Saturday

    Time Temperature Precipitation Wind Pressure Humidity
    00:00 +15°C° 0 mm 1 mps 759 mmHg 70%
    01:00 +15°C° 0 mm 1 mps 759 mmHg 72%
    02:00 +15°C° 0 mm 1 mps 759 mmHg 74%
    03:00 +14°C° 0 mm 1 mps 759 mmHg 76%
    04:00 +14°C° 0 mm 1 mps 759 mmHg 78%
    05:00 +14°C° 0 mm 1 mps 759 mmHg 79%
    06:00 +15°C° 0 mm 1 mps 759 mmHg 76%
    07:00 +15°C° 0 mm 1 mps 759 mmHg 74%
    08:00 +16°C° 0 mm 1 mps 759 mmHg 71%
    09:00 +19°C° 0 mm 1 mps 759 mmHg 62%
    10:00 +22°C° 0 mm 1 mps 760 mmHg 53%
    11:00 +24°C° 0 mm 1 mps 760 mmHg 43%
    12:00 +25°C° 0 mm 1 mps 759 mmHg 40%
    13:00 +25°C° 0 mm 1 mps 759 mmHg 36%
    14:00 +26°C° 0 mm 1 mps 759 mmHg 32%
    15:00 +25°C° 0 mm 1 mps 759 mmHg 34%
    16:00 +24°C° 0 mm 2 mps 758 mmHg 36%
    17:00 +23°C° 0 mm 2 mps 758 mmHg 39%
    18:00 +21°C° 0 mm 2 mps 759 mmHg 47%
    19:00 +20°C° 0 mm 2 mps 759 mmHg 55%
    20:00 +18°C° 0 mm 3 mps 759 mmHg 63%
    21:00 +18°C° 0 mm 3 mps 759 mmHg 69%
    22:00 +17°C° 0 mm 3 mps 760 mmHg 74%
    23:00 +17°C° 0 mm 3 mps 760 mmHg 79%

    Tomorrow, 20 October, Sunday

    Time Temperature Precipitation Wind Pressure Humidity
    00:00 +16°C° 0 mm 3 mps 760 mmHg 81%
    01:00 +16°C° 0 mm 2 mps 760 mmHg 82%
    02:00 +16°C° 0 mm 2 mps 760 mmHg 84%
    03:00 +15°C° 0 mm 2 mps 760 mmHg 84%
    04:00 +15°C° 0 mm 2 mps 760 mmHg 84%
    05:00 +15°C° 0 mm 2 mps 760 mmHg 84%
    06:00 +16°C° 0 mm 2 mps 760 mmHg 80%
    07:00 +16°C° 0 mm 2 mps 760 mmHg 77%
    08:00 +17°C° 0 mm 2 mps 761 mmHg 73%
    09:00 +19°C° 0 mm 2 mps 761 mmHg 63%
    10:00 +21°C° 0 mm 2 mps 761 mmHg 53%
    11:00 +25°C° 0 mm 2 mps 761 mmHg 43%
    12:00 +25°C° 0 mm 2 mps 761 mmHg 39%
    13:00 +26°C° 0 mm 2 mps 760 mmHg 36%
    14:00 +27°C° 0 mm 2 mps 760 mmHg 32%
    15:00 +26°C° 0 mm 2 mps 760 mmHg 35%
    16:00 +25°C° 0 mm 2 mps 760 mmHg 37%
    17:00 +24°C° 0 mm 3 mps 760 mmHg 40%
    18:00 +21°C° 0 mm 3 mps 760 mmHg 48%
    19:00 +20°C° 0 mm 3 mps 761 mmHg 55%
    20:00 +18°C° 0 mm 3 mps 761 mmHg 63%
    21:00 +18°C° 0 mm 3 mps 761 mmHg 65%
    22:00 +17°C° 0 mm 3 mps 761 mmHg 66%
    23:00 +17°C° 0 mm 3 mps 761 mmHg 68%

    Day after tomorrow, 21 October, Monday

    Time Temperature Precipitation Wind Pressure Humidity
    00:00 +16°C° 0 mm 2 mps 761 mmHg 68%
    01:00 +16°C° 0 mm 2 mps 761 mmHg 68%
    02:00 +15°C° 0 mm 2 mps 761 mmHg 68%
    03:00 +15°C° 0 mm 2 mps 761 mmHg 69%
    04:00 +15°C° 0 mm 2 mps 761 mmHg 70%
    05:00 +15°C° 0 mm 2 mps 761 mmHg 71%
    06:00 +15°C° 0 mm 2 mps 761 mmHg 69%
    07:00 +16°C° 0 mm 2 mps 761 mmHg 67%
    08:00 +16°C° 0 mm 2 mps 762 mmHg 65%
    09:00 +19°C° 0 mm 2 mps 762 mmHg 56%
    10:00 +21°C° 0 mm 2 mps 762 mmHg 48%
    11:00 +24°C° 0 mm 2 mps 762 mmHg 39%
    12:00 +25°C° 0 mm 2 mps 762 mmHg 37%
    13:00 +26°C° 0 mm 2 mps 761 mmHg 35%
    14:00 +27°C° 0 mm 2 mps 761 mmHg 33%
    15:00 +26°C° 0 mm 2 mps 761 mmHg 37%
    16:00 +25°C° 0 mm 2 mps 761 mmHg 41%
    17:00 +23°C° 0 mm 2 mps 761 mmHg 45%
    18:00 +21°C° 0 mm 3 mps 761 mmHg 52%
    19:00 +19°C° 0 mm 3 mps 761 mmHg 60%
    20:00 +18°C° 0 mm 3 mps 761 mmHg 68%
    21:00 +17°C° 0 mm 2 mps 761 mmHg 70%
    22:00 +17°C° 0 mm 2 mps 761 mmHg 72%
    23:00 +16°C° 0 mm 2 mps 761 mmHg 74%

    22 October, Tuesday

    Time Temperature Precipitation Wind Pressure Humidity
    00:00 +16°C° 0 mm 2 mps 761 mmHg 74%
    01:00 +16°C° 0 mm 1 mps 761 mmHg 75%
    02:00 +15°C° 0 mm 1 mps 761 mmHg 75%
    03:00 +15°C° 0 mm 1 mps 761 mmHg 76%
    04:00 +15°C° 0 mm 1 mps 761 mmHg 76%
    05:00 +14°C° 0 mm 1 mps 761 mmHg 77%
    06:00 +15°C° 0 mm 1 mps 762 mmHg 73%
    07:00 +16°C° 0 mm 1 mps 762 mmHg 70%
    08:00 +16°C° 0 mm 1 mps 762 mmHg 67%
    09:00 +19°C° 0 mm 1 mps 762 mmHg 58%
    10:00 +20°C° 0 mm 2 mps 762 mmHg 50%
    11:00 +24°C° 0 mm 2 mps 762 mmHg 41%
    12:00 +24°C° 0 mm 2 mps 762 mmHg 38%
    13:00 +25°C° 0 mm 2 mps 762 mmHg 35%
    14:00 +26°C° 0 mm 2 mps 761 mmHg 31%
    15:00 +25°C° 0 mm 2 mps 761 mmHg 34%
    16:00 +24°C° 0 mm 2 mps 761 mmHg 37%
    17:00 +23°C° 0 mm 2 mps 761 mmHg 39%
    18:00 +20°C° 0 mm 2 mps 761 mmHg 45%
    19:00 +19°C° 0 mm 2 mps 761 mmHg 50%
    20:00 +17°C° 0 mm 2 mps 761 mmHg 56%
    21:00 +17°C° 0 mm 2 mps 762 mmHg 60%
    22:00 +16°C° 0 mm 2 mps 762 mmHg 65%
    23:00 +15°C° 0 mm 2 mps 762 mmHg 69%

    23 October, Wednesday

    Time Temperature Precipitation Wind Pressure Humidity
    00:00 +15°C° 0 mm 1 mps 762 mmHg 72%
    01:00 +14°C° 0 mm 1 mps 762 mmHg 74%
    02:00 +14°C° 0 mm 1 mps 762 mmHg 77%
    03:00 +14°C° 0 mm 1 mps 762 mmHg 78%
    04:00 +13°C° 0 mm 1 mps 762 mmHg 79%
    05:00 +13°C° 0 mm 1 mps 762 mmHg 80%
    06:00 +13°C° 0 mm 1 mps 762 mmHg 77%
    07:00 +14°C° 0 mm 1 mps 762 mmHg 73%
    08:00 +15°C° 0 mm 1 mps 762 mmHg 69%
    09:00 +17°C° 0 mm 2 mps 762 mmHg 59%
    10:00 +19°C° 0 mm 2 mps 762 mmHg 49%
    11:00 +21°C° 0 mm 2 mps 762 mmHg 39%
    12:00 +22°C° 0 mm 3 mps 762 mmHg 35%
    13:00 +24°C° 0 mm 3 mps 762 mmHg 30%
    14:00 +25°C° 0 mm 3 mps 761 mmHg 26%
    15:00 +24°C° 0 mm 3 mps 761 mmHg 30%
    16:00 +22°C° 0 mm 3 mps 761 mmHg 34%
    17:00 +20°C° 0 mm 3 mps 761 mmHg 38%
    18:00 +19°C° 0 mm 2 mps 761 mmHg 46%
    19:00 +17°C° 0 mm 2 mps 761 mmHg 55%
    20:00 +16°C° 0 mm 2 mps 761 mmHg 63%
    21:00 +15°C° 0 mm 2 mps 761 mmHg 67%
    22:00 +14°C° 0 mm 2 mps 762 mmHg 71%
    23:00 +13°C° 0 mm 1 mps 762 mmHg 76%

    24 October, Thursday

    Time Temperature Precipitation Wind Pressure Humidity
    00:00 +13°C° 0 mm 1 mps 762 mmHg 78%
    01:00 +13°C° 0 mm 1 mps 761 mmHg 80%
    02:00 +11°C° 0 mm 0 mps 761 mmHg 83%
    03:00 +11°C° 0 mm 0 mps 761 mmHg 83%
    04:00 +11°C° 0 mm 0 mps 761 mmHg 84%
    05:00 +10°C° 0 mm 0 mps 761 mmHg 85%
    06:00 +11°C° 0 mm 0 mps 761 mmHg 81%
    07:00 +13°C° 0 mm 1 mps 761 mmHg 77%
    08:00 +14°C° 0 mm 1 mps 761 mmHg 73%
    09:00 +16°C° 0 mm 1 mps 761 mmHg 62%
    10:00 +18°C° 0 mm 2 mps 761 mmHg 52%
    11:00 +20°C° 0 mm 2 mps 761 mmHg 41%
    12:00 +21°C° 0 mm 2 mps 761 mmHg 37%
    13:00 +23°C° 0 mm 2 mps 760 mmHg 33%
    14:00 +25°C° 0 mm 2 mps 760 mmHg 29%
    15:00 +23°C° 0 mm 2 mps 760 mmHg 33%
    16:00 +21°C° 0 mm 2 mps 760 mmHg 36%
    17:00 +20°C° 0 mm 2 mps 760 mmHg 40%
    18:00 +19°C° 0 mm 2 mps 760 mmHg 48%
    19:00 +17°C° 0 mm 2 mps 760 mmHg 56%
    20:00 +16°C° 0 mm 3 mps 760 mmHg 64%
    21:00 +15°C° 0 mm 2 mps 760 mmHg 69%
    22:00 +15°C° 0 mm 2 mps 760 mmHg 74%
    23:00 +14°C° 0 mm 2 mps 760 mmHg 79%
    Show more